This demonstration page uses our WeatherBlox Daily Observations layout. Learn more.

Left ArrowRight Arrow

Hourly Observations for May 7, 2021

Temp ( °F °C ) Dew Point ( °F °C ) Humidity (%) Winds ( mph kmh ) Pressure ( in mb ) Visibility ( mi km ) Precip ( " mm )
12:53 am 00:53 Mostly Clear 58 14.4 43 6.1 58 58 NW 7 11 30.03 1017 10 16 0.00 0.00
1:53 am 01:53 Clear 56 13.3 44 6.7 65 65 WNW 7 11 30.01 1016 10 16 0.00 0.00
2:53 am 02:53 Clear 54 12.2 44 6.7 69 69 WNW 8 13 29.99 1016 10 16 0.00 0.00
3:53 am 03:53 Clear 53 11.7 45 7.2 74 74 WNW 10 17 29.99 1016 10 16 0.00 0.00
4:53 am 04:53 Clear 51 10.6 45 7.2 80 80 WNW 7 11 29.99 1016 10 16 0.00 0.00
5:53 am 05:53 Clear 51 10.6 45 7.2 80 80 W 7 11 30.02 1017 10 16 0.00 0.00
6:53 am 06:53 Sunny 50 10 45 7.2 83 83 WSW 3 6 30.03 1017 10 16 0.00 0.00
7:53 am 07:53 Mostly Cloudy 51 10.6 46 7.8 83 83 NW 7 11 30.06 1018 10 16 0.00 0.00
8:04 am 08:04 Partly Cloudy 51 10.6 46 7.8 83 83 NW 8 13 30.08 1019 10 16 0.00 0.00
8:53 am 08:53 Mostly Sunny 54 12.2 45 7.2 72 72 WNW 13 20 30.07 1018 10 16 0.00 0.00
9:53 am 09:53 Mostly Sunny 56 13.3 44 6.7 65 65 WNW 12 19 30.09 1019 10 16 0.00 0.00
10:53 am 10:53 Mostly Sunny 59 15 39 3.9 48 48 NW 16 26 30.10 1019 10 16 0.00 0.00
11:53 am 11:53 Mostly Sunny 62 16.7 36 2.2 38 38 NW 17 28 30.10 1019 10 16 0.00 0.00
12:53 pm 12:53 Sunny 64 17.8 34 1.1 33 33 NNW 16 26 30.10 1019 10 16 0.00 0.00
1:53 pm 13:53 Sunny 65 18.3 34 1.1 32 32 NNW 21 33 30.09 1019 10 16 0.00 0.00
2:53 pm 14:53 Sunny 66 18.9 34 1.1 30 30 NW 10 17 30.08 1019 10 16 0.00 0.00
3:53 pm 15:53 Sunny 67 19.4 32 0 27 27 NNW 16 26 30.07 1018 10 16 0.00 0.00
4:53 pm 16:53 Sunny 67 19.4 33 0.6 28 28 WNW 15 24 30.06 1018 10 16 0.00 0.00
5:53 pm 17:53 Sunny 67 19.4 32 0 27 27 NW 13 20 30.05 1018 10 16 0.00 0.00
6:53 pm 18:53 Sunny 66 18.9 32 0 28 28 NW 9 15 30.05 1018 10 16 0.00 0.00
7:53 pm 19:53 Sunny 64 17.8 34 1.1 33 33 NW 10 17 30.05 1018 10 16 0.00 0.00
8:53 pm 20:53 Clear 60 15.6 35 1.7 39 39 WNW 3 6 30.06 1018 10 16 0.00 0.00
9:53 pm 21:53 Clear 59 15 37 2.8 44 44 Calm 30.07 1018 10 16 0.00 0.00
10:53 pm 22:53 Clear 54 12.2 42 5.6 64 64 Calm 30.08 1019 10 16 0.00 0.00
11:53 pm 23:53 Clear 49 9.4 43 6.1 80 80 Calm 30.08 1019 10 16 0.00 0.00

Powered by AerisWeather